sat.trackr.live / text

‹ back to catalog

STARLINK-30100

NORAD 57623 · 2023-119X

PAYLOAD ACTIVE UNKNOWN

§ Identity

Operator
Country
US
Launch date
2023-08-11
Launch site
AFETR
Launch vehicle
Mass (kg)
RCS (m²)

Purposes: comms

External: N2YO · Heavens-Above · Gunter

§ Orbital elements

Epoch: 2026-09-20T03:11:35.736000Z

Period
94.27 min
Inclination
43.0006°
Eccentricity
0.0000942
Mean motion
15.27576631 rev/d
Perigee alt
482.4 km
Apogee alt
483.7 km
Semi-major
6,861.2 km
B*
1.4257e-5
RAAN
63.4950°
Arg perigee
278.5635°
Mean anomaly
81.5110°
Rev number
17,282

§ Raw data

STARLINK-301001 57623U 23119X   26263.13305250  .00000130  00000+0  14257-4 0  99932 57623  43.0006  63.4950 0000942 278.5635  81.5110 15.27576631172825

JSON: /api/v1/satellites/57623 · /tle

For live sub-satellite position, see the globe view (requires WebGL).

§ Visibility from observer

Set your observer location to see the next 7 days of passes ≥ 10°. The values pass through the URL so the page stays shareable.

No JS? Fill the form by hand. The geolocation button needs JavaScript.